Weather History for Bentonville, AR

Change the Weather History Date:

Thursday, March 28, 2013

  Actual Average Record
Temperature  
Mean Temperature 56 °F -  
Max Temperature 69 °F 64 °F 88 °F (1963)
Min Temperature 42 °F 40 °F 23 °F (1948)
Degree Days  
Heating Degree Days 10    
Growing Degree Days 6 (Base 50)    
Moisture  
Dew Point 38 °F    
Average Humidity 51    
Maximum Humidity 67    
Minimum Humidity 40    
Precipitation  
Precipitation 0.00 in - - ()
Sea Level Pressure  
Sea Level Pressure 30.17 in    
Wind  
Wind Speed 8 mph (SSE)    
Max Wind Speed 16 mph    
Max Gust Speed 23 mph    
Visibility 10 miles    
Events      
Averages and records for this station are not official NWS values.
T = Trace of Precipitation, MM = Missing Value Source: NWS Daily Summary

Daily Weather History Graph

Daily Weather History Graph

Search for Another Location

Airport:

Trip Planner

Search our weather history database for the weather conditions in past years. The results will help you decide how hot, cold, wet, or windy it might be!

Date:

Astronomy

Mar. 28, 2013 Rise Set
Actual Time 7:08 AM CDT 7:35 PM CDT
Civil Twilight 6:42 AM CDT 8:01 PM CDT
Nautical Twilight 6:12 AM CDT 8:32 PM CDT
Astronomical Twilight 5:41 AM CDT 9:03 PM CDT
Moon 9:24 PM CDT (3/28) 7:40 AM CDT (3/28)
Length of Visible Light 13h 19m
Length of Day
12h 27m
Full, 98% of the Moon is Illuminated
Mar 28
Full
Apr 2
Last Quarter
Apr 10
New
Apr 18
First Quarter
Apr 25
Full

Hourly Weather History & Observations

Time (CDT) Temp. Windchill Dew Point Humidity Pressure Visibility Wind Dir Wind Speed Gust Speed Precip Events Conditions
12:15 AM 46.4 °F 41.9 °F 26.6 °F 46% 30.18 in 8.0 mi SE 9.2 mph - N/A   Clear
12:35 AM 44.6 °F 40.2 °F 26.6 °F 49% 30.18 in 8.0 mi SE 8.1 mph - N/A   Clear
12:55 AM 44.6 °F 40.2 °F 26.6 °F 49% 30.19 in 9.0 mi SE 8.1 mph - N/A   Clear
1:15 AM 42.8 °F 38.6 °F 26.6 °F 53% 30.19 in 10.0 mi SE 6.9 mph - N/A   Clear
1:35 AM 44.6 °F 40.7 °F 28.4 °F 53% 30.19 in 10.0 mi SE 6.9 mph - N/A   Mostly Cloudy
1:55 AM 46.4 °F 42.4 °F 28.4 °F 50% 30.19 in 10.0 mi SE 8.1 mph - N/A   Overcast
2:15 AM 46.4 °F 42.4 °F 28.4 °F 50% 30.18 in 10.0 mi SE 8.1 mph - N/A   Overcast
2:35 AM 46.4 °F 42.9 °F 28.4 °F 50% 30.18 in 10.0 mi SE 6.9 mph - N/A   Overcast
2:55 AM 46.4 °F 42.4 °F 28.4 °F 50% 30.18 in 10.0 mi SE 8.1 mph - N/A   Overcast
3:15 AM 46.4 °F 41.9 °F 28.4 °F 50% 30.18 in 10.0 mi SE 9.2 mph - N/A   Overcast
3:35 AM 46.4 °F 41.9 °F 28.4 °F 50% 30.18 in 10.0 mi SE 9.2 mph - N/A   Overcast
3:55 AM 46.4 °F 42.4 °F 28.4 °F 50% 30.18 in 10.0 mi SE 8.1 mph - N/A   Overcast
4:15 AM 46.4 °F 42.4 °F 28.4 °F 50% 30.17 in 10.0 mi SE 8.1 mph - N/A   Overcast
4:35 AM 46.4 °F 42.4 °F 28.4 °F 50% 30.17 in 10.0 mi SE 8.1 mph - N/A   Overcast
4:55 AM 46.4 °F 42.9 °F 28.4 °F 50% 30.17 in 10.0 mi SSE 6.9 mph - N/A   Overcast
5:15 AM 46.4 °F 42.9 °F 28.4 °F 50% 30.17 in 10.0 mi SSE 6.9 mph - N/A   Overcast
5:35 AM 46.4 °F 43.5 °F 28.4 °F 50% 30.17 in 10.0 mi SE 5.8 mph - N/A   Overcast
5:55 AM 46.4 °F 42.9 °F 30.2 °F 53% 30.17 in 10.0 mi SSE 6.9 mph - N/A   Overcast
6:15 AM 46.4 °F 42.9 °F 30.2 °F 53% 30.17 in 10.0 mi SE 6.9 mph - N/A   Overcast
6:35 AM 46.4 °F 42.9 °F 30.2 °F 53% 30.17 in 10.0 mi SE 6.9 mph - N/A   Overcast
6:55 AM 46.4 °F 42.9 °F 30.2 °F 53% 30.18 in 10.0 mi SE 6.9 mph - N/A   Overcast
7:15 AM 46.4 °F 43.5 °F 30.2 °F 53% 30.18 in 10.0 mi SSE 5.8 mph - N/A   Overcast
7:35 AM 46.4 °F 44.3 °F 30.2 °F 53% 30.18 in 10.0 mi SSE 4.6 mph - N/A   Mostly Cloudy
7:55 AM 46.4 °F 44.3 °F 30.2 °F 53% 30.19 in 10.0 mi SSE 4.6 mph - N/A   Overcast
8:15 AM 48.2 °F - 30.2 °F 50% 30.19 in 10.0 mi SSE 4.6 mph - N/A   Mostly Cloudy
8:35 AM 50.0 °F - 30.2 °F 47% 30.20 in 10.0 mi South 5.8 mph - N/A   Mostly Cloudy
8:55 AM 51.8 °F - 30.2 °F 44% 30.20 in 10.0 mi South 4.6 mph - N/A   Mostly Cloudy
9:15 AM 53.6 °F - 30.2 °F 41% 30.20 in 10.0 mi South 11.5 mph - N/A   Overcast
9:35 AM 55.4 °F - 33.8 °F 44% 30.21 in 10.0 mi SSW 10.4 mph - N/A   Scattered Clouds
9:55 AM 55.4 °F - 33.8 °F 44% 30.20 in 10.0 mi SSW 9.2 mph 17.3 mph N/A   Clear
10:15 AM 57.2 °F - 35.6 °F 44% 30.20 in 10.0 mi South 11.5 mph - N/A   Clear
10:35 AM 59.0 °F - 37.4 °F 45% 30.20 in 10.0 mi South 11.5 mph - N/A   Clear
10:55 AM 60.8 °F - 39.2 °F 45% 30.21 in 10.0 mi South 10.4 mph - N/A   Clear
11:15 AM 62.6 °F - 41.0 °F 45% 30.20 in 10.0 mi SSW 11.5 mph - N/A   Clear
11:35 AM 62.6 °F - 42.8 °F 48% 30.20 in 10.0 mi SW 12.7 mph - N/A   Clear
11:55 AM 64.4 °F - 44.6 °F 49% 30.21 in 10.0 mi SSW 13.8 mph - N/A   Clear
12:15 PM 62.6 °F - 44.6 °F 52% 30.20 in 10.0 mi SW 15.0 mph 19.6 mph N/A   Clear
12:35 PM 62.6 °F - 42.8 °F 48% 30.19 in 10.0 mi SW 15.0 mph 20.7 mph N/A   Clear
12:55 PM 64.4 °F - 44.6 °F 49% 30.20 in 10.0 mi SW 16.1 mph 19.6 mph N/A   Clear
1:15 PM 64.4 °F - 44.6 °F 49% 30.19 in 10.0 mi SSW 12.7 mph 18.4 mph N/A   Clear
1:35 PM 64.4 °F - 44.6 °F 49% 30.18 in 10.0 mi SSW 12.7 mph 17.3 mph N/A   Clear
1:55 PM 66.2 °F - 46.4 °F 49% 30.17 in 10.0 mi SW 15.0 mph 19.6 mph N/A   Clear
2:15 PM 66.2 °F - 44.6 °F 46% 30.17 in 10.0 mi SSW 10.4 mph 16.1 mph N/A   Clear
2:35 PM 68.0 °F - 46.4 °F 46% 30.15 in 10.0 mi SSW 11.5 mph - N/A   Clear
2:55 PM 68.0 °F - 44.6 °F 43% 30.15 in 10.0 mi SW 10.4 mph 16.1 mph N/A   Clear
3:15 PM 69.8 °F - 44.6 °F 40% 30.14 in 10.0 mi SW 11.5 mph - N/A   Partly Cloudy
3:35 PM 69.8 °F - 44.6 °F 40% 30.13 in 10.0 mi SSW 10.4 mph - N/A   Scattered Clouds
3:55 PM 68.0 °F - 44.6 °F 43% 30.13 in 10.0 mi SSW 12.7 mph 16.1 mph N/A   Scattered Clouds
4:15 PM 66.2 °F - 44.6 °F 46% 30.13 in 10.0 mi SSW 11.5 mph 23.0 mph N/A   Scattered Clouds
4:35 PM 64.4 °F - 42.8 °F 45% 30.13 in 10.0 mi SSW 10.4 mph - N/A   Partly Cloudy
4:55 PM 66.2 °F - 44.6 °F 46% 30.13 in 10.0 mi South 10.4 mph - N/A   Partly Cloudy
5:15 PM 68.0 °F - 46.4 °F 46% 30.13 in 10.0 mi SSE 12.7 mph - N/A   Clear
5:35 PM 66.2 °F - 44.6 °F 46% 30.12 in 10.0 mi South 6.9 mph - N/A   Clear
5:55 PM 66.2 °F - 46.4 °F 49% 30.12 in 10.0 mi South 10.4 mph - N/A   Scattered Clouds
6:15 PM 64.4 °F - 44.6 °F 49% 30.12 in 10.0 mi South 5.8 mph - N/A   Scattered Clouds
6:35 PM 64.4 °F - 44.6 °F 49% 30.12 in 10.0 mi SSE 8.1 mph - N/A   Mostly Cloudy
6:55 PM 62.6 °F - 44.6 °F 52% 30.12 in 10.0 mi SE 6.9 mph - N/A   Scattered Clouds
7:15 PM 62.6 °F - 44.6 °F 52% 30.12 in 10.0 mi SE 6.9 mph - N/A   Clear
7:35 PM 60.8 °F - 44.6 °F 55% 30.12 in 10.0 mi SE 5.8 mph - N/A   Clear
7:55 PM 60.8 °F - 44.6 °F 55% 30.12 in 10.0 mi SSE 6.9 mph - N/A   Clear
8:15 PM 59.0 °F - 44.6 °F 59% 30.12 in 10.0 mi SSE 4.6 mph - N/A   Clear
8:35 PM 59.0 °F - 44.6 °F 59% 30.13 in 10.0 mi SSE 5.8 mph - N/A   Clear
8:55 PM 59.0 °F - 44.6 °F 59% 30.13 in 10.0 mi ESE 4.6 mph - N/A   Clear
9:15 PM 59.0 °F - 44.6 °F 59% 30.14 in 10.0 mi ESE 4.6 mph - N/A   Partly Cloudy
9:35 PM 59.0 °F - 44.6 °F 59% 30.15 in 10.0 mi ESE 3.5 mph - N/A   Scattered Clouds
9:55 PM 57.2 °F - 44.6 °F 63% 30.16 in 10.0 mi SE 4.6 mph - N/A   Mostly Cloudy
10:15 PM 57.2 °F - 44.6 °F 63% 30.16 in 10.0 mi SSE 4.6 mph - N/A   Overcast
10:35 PM 57.2 °F - 44.6 °F 63% 30.16 in 10.0 mi SSE 4.6 mph - N/A   Overcast
10:55 PM 57.2 °F - 44.6 °F 63% 30.16 in 10.0 mi SSE 4.6 mph - N/A   Overcast
11:15 PM 57.2 °F - 44.6 °F 63% 30.16 in 10.0 mi South 4.6 mph - N/A   Overcast
11:35 PM 57.2 °F - 44.6 °F 63% 30.15 in 10.0 mi South 4.6 mph - N/A   Mostly Cloudy
11:55 PM 55.4 °F - 44.6 °F 67% 30.15 in 10.0 mi SSE 5.8 mph - N/A   Mostly Cloudy